Location: Grossmotten
(48.5500°N, 15.3833°E)
Time: 08:03:27
(UTC+00:00)

Cosmos 990 Rocket - Pass Details

Date: 15 November 2019
Orbit: 746 x 770 km, 74.0° (Epoch: 14 December)

Event Time Altitude Azimuth Distance (km) Brightness Sun altitude
Rises 04:21:47 0° 209° (SSW) 3,188 7.0 -17.1°
Reaches altitude 10° 04:24:09 10° 212° (SSW) 2,271 6.2 -16.7°
Maximum altitude 04:29:16 67° 295° (WNW) 822 3.9 -15.9°
Drops below altitude 10° 04:34:29 10° 19° (NNE) 2,303 6.6 -15.1°
Sets 04:36:53 0° 22° (NNE) 3,236 7.4 -14.7°
